RH
26 25 27 27 26 25 25 24 23 21 19 19 19 18 16 16 16 17 13 12 15 17 21 30 31 31 27 24 35 46 53 53 46 42 36 21 20 19 19 20 19 20 20 19 17
28 28 27 27 26 24 24 24 22 21 20 19 18 16 14 15 17 16 12 13 18 20 21 32 28 31 24 25 28 48 56 49 38 34 28 22 21 20 20 21 21 19 18 17 16
28 28 28 28 27 25 25 23 20 19 19 18 15 13 13 18 18 14 11 13 18 22 24 28 28 26 26 29 33 36 44 34 30 28 22 23 23 21 21 22 20 19 17 16 14
28 29 28 28 27 26 25 22 19 18 18 16 13 12 13 16 22 13 11 12 16 22 27 27 28 26 35 38 33 36 32 32 25 22 21 23 22 23 22 22 19 18 17 15 14
25 28 29 28 27 26 25 22 18 18 18 14 14 13 14 14 14 13 12 12 12 16 24 26 26 26 36 35 32 31 28 25 23 21 22 21 22 22 21 19 19 18 17 13 15
28 25 28 28 27 26 25 23 20 17 18 15 14 12 14 14 14 13 13 14 15 15 19 24 25 26 29 30 32 27 24 23 21 21 21 22 20 18 20 19 18 18 16 14 17
30 27 25 28 28 26 25 24 21 17 17 16 14 11 13 14 14 13 13 14 16 17 19 24 23 20 24 27 23 24 26 23 21 20 22 19 23 23 18 19 18 16 14 17 20
30 29 26 24 27 26 24 24 22 16 16 15 13 11 12 14 14 14 13 15 16 19 21 21 20 19 23 24 25 28 30 32 26 23 22 24 30 23 19 18 18 15 15 19 22
34 29 28 24 23 26 25 23 22 15 15 14 11 12 12 14 14 13 14 15 17 17 17 17 16 23 27 33 33 36 29 34 32 25 24 27 30 24 19 18 16 14 14 19 21
33 32 28 26 23 24 25 24 19 14 15 14 14 13 12 14 14 14 14 14 15 17 16 18 18 28 32 22 18 18 29 31 34 30 26 31 31 28 19 18 17 14 14 17 20
32 31 29 26 23 23 24 21 19 20 18 14 14 13 13 13 14 14 14 15 15 16 23 21 26 26 20 22 19 23 24 23 28 32 28 32 31 31 24 22 20 15 14 16 19
35 31 29 26 23 24 23 22 22 23 21 18 16 15 14 14 14 15 14 14 17 22 21 25 25 19 17 17 17 23 24 23 26 34 30 34 34 32 31 23 21 18 15 15 19
40 32 30 26 23 25 23 25 24 21 20 17 17 16 15 14 15 15 16 16 18 20 22 25 22 18 18 17 16 18 21 19 17 26 32 31 30 30 25 25 22 20 18 16 17
44 35 31 26 25 29 28 27 24 20 24 16 18 17 16 15 16 15 18 16 19 20 21 21 16 17 18 18 17 14 18 21 25 29 27 29 23 31 28 26 23 23 21 19 18
50 40 32 30 27 32 32 28 21 25 25 17 18 18 18 16 17 17 18 19 22 21 22 19 19 17 18 18 15 15 22 28 31 34 36 31 28 24 30 28 26 23 21 19 18
63 46 33 33 27 33 32 25 25 23 25 22 19 19 19 19 20 18 17 17 19 21 22 21 17 14 15 17 15 25 30 40 45 40 24 33 30 20 27 24 24 28 20 18 18
70 58 40 32 30 31 30 27 26 27 18 23 22 20 20 21 20 19 18 22 22 20 20 24 22 19 14 18 19 21 26 27 17 25 19 36 32 25 25 27 24 24 22 19 17
69 62 53 34 32 32 31 29 26 22 24 23 24 23 22 23 21 22 24 24 24 26 33 28 20 22 14 15 17 19 23 27 12 19 22 30 28 19 24 22 20 18 20 19 17
70 60 56 34 31 29 31 37 32 29 24 27 24 22 23 23 22 22 25 27 24 29 19 30 27 18 16 14 18 21 22 23 30 40 33 28 24 25 22 20 19 21 21 18 15
70 61 54 36 32 29 38 43 30 26 24 23 25 23 26 27 25 24 25 23 25 26 24 26 22 24 20 18 19 21 24 22 32 30 18 21 24 21 26 25 22 22 19 16 16
74 58 44 37 32 35 53 46 33 23 24 23 26 27 26 29 29 27 24 23 25 25 22 26 22 24 25 27 24 22 21 31 32 35 33 25 22 21 21 25 22 20 15 14 16
78 62 44 41 42 63 56 43 30 28 26 24 23 25 29 32 32 29 26 25 27 23 24 23 26 26 25 24 22 20 20 28 51 35 48 53 31 24 21 20 20 17 14 14 15
68 51 44 45 62 62 52 44 37 31 29 26 26 27 26 31 26 29 27 33 30 23 24 29 29 23 19 25 30 27 26 37 48 52 50 52 29 25 22 21 18 17 15 14 15
60 68 49 47 48 50 46 42 38 30 30 26 25 25 26 28 30 28 33 34 30 29 30 24 30 23 27 18 32 30 32 41 33 48 51 38 24 26 27 25 20 18 16 15 15
68 64 59 71 62 52 46 42 43 37 32 30 29 29 29 31 31 32 34 34 29 45 32 29 28 32 30 28 33 30 30 42 45 31 30 23 34 21 24 24 17 14 16 16 16
74 64 62 60 59 58 63 50 49 39 34 34 34 29 33 32 30 30 38 34 31 39 33 40 30 35 30 29 41 42 43 37 34 33 34 29 27 24 21 21 19 16 16 16 16
90 74 64 76 72 67 66 54 48 41 35 31 32 33 34 34 27 26 28 29 27 39 36 38 39 38 28 35 37 34 37 42 41 37 28 30 22 24 24 30 26 21 17 15 15
Wind_Speed
6 3 2 1 2 2 3 2 1 1 1 2 4 5 7 6 2 2 5 8 6 2 4 5 3 2 3 6 6 3 3 2 5 6 5 8 4 4 6 10 5 4 7 13 7
6 4 2 1 0 1 0 1 1 1 2 4 3 6 7 5 1 1 7 8 5 1 5 6 2 2 4 4 5 5 2 2 0 3 4 9 4 9 5 8 6 14 15 11 6
6 5 3 1 1 2 1 3 2 2 3 3 5 6 6 3 2 2 7 5 4 1 4 4 4 3 5 6 7 4 3 2 5 2 12 9 6 5 12 2 7 13 14 10 4
6 5 4 3 2 3 4 3 4 3 3 4 5 7 2 1 1 5 8 3 3 1 4 4 4 3 5 4 4 5 5 3 4 6 6 7 10 6 2 3 8 13 11 7 3
7 6 5 4 4 3 4 5 5 5 4 4 4 5 1 1 2 6 7 4 2 2 4 4 4 5 5 6 4 4 3 6 7 7 10 10 6 5 7 12 13 12 9 5 1
8 7 5 5 5 6 5 5 6 6 5 3 4 3 2 2 1 4 7 6 3 1 4 6 3 10 12 5 4 4 10 8 4 5 6 5 3 3 8 13 12 10 9 5 1
8 8 7 6 5 6 7 5 6 6 5 4 3 3 1 1 1 1 4 7 7 6 5 8 11 2 8 7 11 7 4 3 2 3 2 6 1 4 13 14 12 11 9 5 1
9 9 9 8 7 6 7 6 6 6 5 4 3 2 1 3 2 2 3 7 8 9 9 10 7 13 6 17 5 3 3 1 2 4 3 1 3 3 16 16 13 12 9 6 2
10 10 10 9 8 6 6 6 6 5 4 3 2 2 1 3 3 2 3 4 8 9 9 6 4 9 6 4 3 4 1 1 1 6 4 2 1 3 15 15 14 13 10 7 5
10 10 10 11 9 6 5 5 4 4 4 4 5 3 2 3 3 2 5 5 2 2 2 1 5 4 2 2 1 2 1 2 3 3 3 3 7 4 15 15 15 14 12 9 6
11 11 10 11 9 6 3 2 2 2 6 3 2 1 1 4 3 1 3 6 4 2 3 4 4 0 3 3 3 4 2 2 1 3 3 5 8 6 14 14 14 16 15 12 8
11 11 10 10 8 4 2 2 2 1 2 7 9 6 4 5 2 2 4 4 3 2 1 4 1 2 5 3 2 2 1 2 1 2 4 0 9 5 10 11 20 19 17 14 11
11 11 10 9 5 1 1 2 1 1 2 1 4 4 4 7 2 3 4 5 3 3 2 4 1 4 2 1 1 2 2 2 2 1 1 5 4 2 1 6 11 17 16 14 13
10 10 10 7 1 1 2 1 1 1 4 3 1 1 3 5 2 2 4 2 4 4 4 3 1 2 1 0 3 1 2 2 2 2 2 3 3 2 2 7 8 16 17 17 14
10 9 8 6 3 1 1 1 1 1 2 1 2 3 3 2 5 2 3 2 5 4 2 1 2 1 1 1 2 2 1 2 2 3 1 1 0 3 2 6 10 17 20 19 16
9 8 7 5 4 3 2 1 2 5 5 2 1 1 3 1 2 3 2 4 5 4 4 2 2 2 2 2 2 5 3 4 3 1 1 0 1 3 4 4 2 7 23 21 18
9 8 7 5 3 4 2 2 4 3 2 2 2 1 3 2 1 1 2 2 4 3 1 1 0 1 2 2 2 2 3 3 2 3 2 2 0 6 4 6 4 5 22 23 18
9 8 7 5 4 5 3 4 3 3 4 2 2 3 3 5 1 0 2 1 2 4 3 3 3 2 1 2 1 1 2 3 2 2 4 2 5 2 2 3 7 7 15 21 19
10 7 6 5 5 7 4 2 6 6 2 6 2 3 1 0 2 1 4 4 5 7 6 4 2 1 3 1 2 1 1 1 5 2 1 2 5 4 1 4 6 9 18 22 20
8 6 7 6 6 10 3 5 4 3 3 2 5 4 4 3 3 3 4 2 2 3 0 4 2 1 0 1 5 3 3 2 2 1 3 3 4 4 6 10 10 13 22 23 20
5 3 5 8 9 8 4 7 5 7 4 4 5 3 4 5 6 4 2 0 1 2 1 4 2 1 1 4 5 2 1 4 3 1 3 2 5 6 8 9 15 22 28 26 24
4 1 6 13 4 3 4 5 2 3 4 3 3 4 7 7 5 3 4 4 3 5 5 2 4 4 3 1 1 2 4 4 3 3 1 1 6 3 5 8 18 23 26 25 24
4 4 7 15 4 2 3 3 3 2 4 3 4 5 2 5 3 4 3 0 3 5 4 6 0 1 1 1 3 3 3 4 4 2 6 4 5 1 4 7 15 19 21 25 25
3 1 4 11 5 6 4 4 4 5 5 4 2 3 3 2 2 4 4 1 2 3 4 4 3 5 6 4 4 4 4 4 4 3 4 7 7 5 8 10 17 22 22 25 27
6 4 4 3 4 6 5 2 4 4 5 4 2 6 6 6 3 4 2 2 0 3 1 4 4 3 5 6 4 5 5 9 9 6 8 3 10 7 11 14 27 27 27 27 29
5 4 4 2 3 6 5 6 8 3 5 3 4 4 5 7 8 7 6 4 6 2 5 1 2 3 4 1 5 5 9 12 14 4 12 13 23 9 19 14 16 27 30 33 33
16 5 3 2 4 5 5 7 8 4 5 3 6 3 3 7 5 2 7 4 9 8 7 4 5 3 5 2 4 6 10 10 5 5 8 9 13 6 5 12 21 26 32 37 35
Wind_Direction
23 33 34 34 100 97 101 85 43 357 304 275 309 325 331 332 351 85 3 350 346 353 150 157 149 100 40 56 53 75 73 151 176 167 151 160 132 139 113 118 104 104 120 130 135
17 19 20 17 307 128 61 29 351 338 313 301 312 326 333 328 140 359 347 344 347 340 166 172 193 135 65 46 31 57 85 119 11 148 160 158 141 138 130 124 87 112 126 133 123
8 4 360 330 295 287 278 315 322 317 307 313 321 334 335 342 111 27 339 345 359 52 164 172 145 113 77 46 23 40 96 136 22 151 152 139 116 125 136 170 166 164 149 141 116
3 358 345 319 281 278 295 302 309 315 308 313 330 336 360 9 99 343 342 338 14 109 171 171 163 89 69 65 40 95 60 96 121 121 124 127 130 104 78 114 151 149 147 140 103
358 351 340 322 296 276 286 304 303 310 308 310 331 348 322 85 55 346 350 360 328 206 192 188 171 125 99 103 79 79 120 79 109 119 109 124 100 133 119 127 138 151 155 157 97
350 346 335 321 302 288 280 299 304 310 304 297 318 338 312 85 61 349 1 356 18 133 196 189 178 130 102 71 59 109 109 114 105 108 122 116 137 136 163 153 158 165 169 171 100
341 340 334 318 300 287 282 290 298 302 295 286 300 312 266 158 156 352 25 47 47 57 132 137 130 114 108 103 115 121 91 89 118 124 110 128 185 219 175 174 172 173 180 182 185
331 334 333 322 305 292 282 288 292 295 284 268 292 286 168 176 155 180 71 51 62 85 108 106 106 100 81 118 75 62 69 39 174 160 134 126 278 168 175 183 184 184 187 194 214
326 328 327 324 311 298 291 288 287 289 271 250 285 255 193 183 188 205 189 111 88 94 97 97 112 92 114 99 73 17 257 230 282 195 135 185 270 167 183 192 189 193 197 205 228
321 323 324 325 319 305 296 293 281 263 247 249 250 286 216 185 171 143 177 170 147 127 88 95 78 86 60 95 248 212 238 241 264 180 178 176 247 191 197 204 205 203 206 214 229
320 319 322 322 324 314 286 282 234 201 222 216 145 166 153 166 166 119 174 176 150 125 44 24 68 127 201 176 129 120 168 238 196 170 179 228 261 227 208 214 211 209 212 217 228
324 322 320 320 325 315 285 180 132 194 295 238 236 223 206 193 169 163 159 168 133 121 58 21 41 155 118 138 124 134 162 261 149 115 193 220 267 271 199 221 216 210 214 217 222
321 323 321 322 319 283 179 139 124 323 278 246 207 207 187 200 187 181 180 151 106 113 77 146 146 143 124 106 135 139 180 195 222 87 190 315 275 286 206 231 224 219 222 221 223
318 325 326 329 293 179 142 165 272 331 57 284 136 199 183 165 104 147 164 151 47 147 121 103 78 150 80 200 134 255 170 131 125 53 299 356 301 268 260 253 220 215 211 218 216
316 321 327 333 314 192 230 260 186 283 354 252 131 140 156 162 140 68 146 139 141 136 112 171 137 139 220 279 189 163 114 98 99 98 47 28 172 254 333 268 233 219 212 212 214
305 317 319 316 299 228 252 241 144 46 259 129 109 120 96 18 99 127 117 106 103 95 47 97 101 82 124 49 51 144 92 54 65 104 39 152 25 263 203 213 253 214 211 208 211
289 310 314 302 279 211 229 165 45 149 344 220 184 170 121 178 333 120 133 116 159 107 224 64 64 78 125 92 1 76 66 341 341 9 249 125 20 254 228 223 227 220 205 204 208
268 293 307 283 250 212 194 51 192 233 221 104 93 87 186 156 172 11 98 217 216 102 122 167 292 158 6 139 241 251 173 147 262 282 296 100 236 243 202 234 237 238 204 197 205
261 280 287 255 229 202 172 88 214 211 170 142 129 143 241 246 151 140 220 217 206 177 165 143 248 353 55 69 98 134 229 137 104 60 311 250 276 247 234 229 223 183 186 198 206
261 262 249 232 204 180 97 227 235 238 142 141 185 171 189 199 171 171 186 209 190 204 245 183 118 333 108 80 59 161 123 59 33 156 278 279 278 250 224 221 214 207 205 206 207
256 222 208 190 168 162 172 225 258 249 226 174 207 160 185 181 178 207 218 232 137 132 96 135 104 26 25 200 185 110 272 48 109 84 180 301 266 209 203 194 200 213 212 210 210
214 223 191 175 127 125 168 203 243 261 210 254 174 178 190 167 176 228 213 203 154 164 160 193 134 185 198 332 135 213 188 162 126 212 61 121 270 179 212 201 208 213 212 212 214
230 226 188 185 161 221 253 257 237 233 222 206 226 199 193 178 182 192 192 23 171 155 167 189 251 11 305 12 357 234 196 121 110 102 203 153 261 163 233 232 222 218 211 209 210
217 193 186 198 178 146 164 230 214 222 240 220 198 138 135 184 241 176 184 175 186 184 151 138 154 187 202 199 130 190 190 192 146 148 183 230 280 218 229 224 221 218 213 207 209
210 250 183 211 231 161 165 188 187 210 214 204 223 206 183 189 170 197 133 132 58 161 71 135 220 187 258 234 187 214 185 182 204 200 203 255 219 248 217 212 218 219 210 207 208
207 182 188 166 148 149 164 218 188 215 180 236 196 227 198 187 188 206 149 193 199 165 170 301 198 155 281 123 199 255 234 208 221 242 270 280 277 217 244 228 220 220 211 212 213
218 219 186 174 150 127 213 203 205 183 223 223 211 166 189 237 228 218 183 132 159 152 174 163 148 127 264 0 304 280 233 188 182 213 203 218 245 167 220 224 228 219 216 218 218